Starlink 31293

operational
NORAD ID: 58952 Int'l Des: 2024-027 Owner: SPXS Country: US Constellation: starlink
LEOCIRCULAR

Starlink 31293について

説明を読み込み中...

リアルタイム位置

3D地球を読み込み中...

次回通過

高度履歴

Altitude vs Time

uPlot chart will show altitude changes over time

軌道要素

1 58952U 24027X 25353.18837710 -.00000668 00000-0 -10443-4 0 9995
2 58952 53.1622 323.5129 0001093 84.8005 275.3120 15.30179654105000
Epoch: Dec 19, 2025 • Age: 18 hours

現在のステータス

高度 477.7 km
速度 7.63 km/s
衛星直下点 36.77°N, 42.41°E
打ち上げ日 Feb 10, 2024
運用期間 1.8 years
タイプ internet

技術仕様

分類 Payload
質量 730.00 kg
乾燥質量 700.00 kg
総質量 730.00 kg
長さ 0.30 m
直径 4.10 m
スパン 29.00 m
形状 Box + pan
製造者 SPXS
バスタイプ Starlink V2M
フェーズステータス In Orbit
所有者/国 SPXS/US

大規模コンステレーション

Loading constellations...